Year,Month,Day,Hour,Minute,Value (Times are PST for temperature in C)
2009,01,18,00,00,1.80
2009,01,18,00,01,1.80
2009,01,18,00,02,1.80
2009,01,18,00,03,1.80
2009,01,18,00,04,1.80
2009,01,18,00,05,1.70
2009,01,18,00,06,1.70
2009,01,18,00,07,1.70
2009,01,18,00,08,1.70
2009,01,18,00,09,1.70
2009,01,18,00,10,1.70
2009,01,18,00,11,1.60
2009,01,18,00,12,1.60
2009,01,18,00,13,1.60
2009,01,18,00,14,1.60
2009,01,18,00,15,1.60
2009,01,18,00,16,1.60
2009,01,18,00,17,1.60
2009,01,18,00,18,1.50
2009,01,18,00,19,1.50
2009,01,18,00,20,1.50
2009,01,18,00,21,1.60
2009,01,18,00,22,1.60
2009,01,18,00,23,1.60
2009,01,18,00,24,1.60
2009,01,18,00,25,1.60
2009,01,18,00,26,1.50
2009,01,18,00,27,1.50
2009,01,18,00,28,1.50
2009,01,18,00,29,1.40
2009,01,18,00,30,1.30
2009,01,18,00,31,1.30
2009,01,18,00,32,1.30
2009,01,18,00,33,1.30
2009,01,18,00,34,1.20
2009,01,18,00,35,1.20
2009,01,18,00,36,1.10
2009,01,18,00,37,1.10
2009,01,18,00,38,1.00
2009,01,18,00,39,1.00
2009,01,18,00,40,0.90
2009,01,18,00,41,0.90
2009,01,18,00,42,1.00
2009,01,18,00,43,1.00
2009,01,18,00,44,1.10
2009,01,18,00,45,1.10
2009,01,18,00,46,1.10
2009,01,18,00,47,1.10
2009,01,18,00,48,1.10
2009,01,18,00,49,1.20
2009,01,18,00,50,1.20
2009,01,18,00,51,1.30
2009,01,18,00,52,1.40
2009,01,18,00,53,1.50
2009,01,18,00,54,1.70
2009,01,18,00,55,1.80
2009,01,18,00,56,1.80
2009,01,18,00,57,1.90
2009,01,18,00,58,2.00
2009,01,18,00,59,2.10
2009,01,18,01,00,2.20
2009,01,18,01,01,2.30
2009,01,18,01,02,2.50
2009,01,18,01,03,2.50
2009,01,18,01,04,2.60
2009,01,18,01,05,2.60
2009,01,18,01,06,2.50
2009,01,18,01,07,2.50
2009,01,18,01,08,2.40
2009,01,18,01,09,2.50
2009,01,18,01,10,2.50
2009,01,18,01,11,2.50
2009,01,18,01,12,2.50
2009,01,18,01,13,2.60
2009,01,18,01,14,2.60
2009,01,18,01,15,2.70
2009,01,18,01,16,2.80
2009,01,18,01,17,2.80
2009,01,18,01,18,2.80
2009,01,18,01,19,2.90
2009,01,18,01,20,2.90
2009,01,18,01,21,2.90
2009,01,18,01,22,3.00
2009,01,18,01,23,3.10
2009,01,18,01,24,3.10
2009,01,18,01,25,3.20
2009,01,18,01,26,3.20
2009,01,18,01,27,3.30
2009,01,18,01,28,3.30
2009,01,18,01,29,3.40
2009,01,18,01,30,3.40
2009,01,18,01,31,3.40
2009,01,18,01,32,3.40
2009,01,18,01,33,3.40
2009,01,18,01,34,3.40
2009,01,18,01,35,3.40
2009,01,18,01,36,3.40
2009,01,18,01,37,3.40
2009,01,18,01,38,3.50
2009,01,18,01,39,3.60
2009,01,18,01,40,3.70
2009,01,18,01,41,3.70
2009,01,18,01,42,3.80
2009,01,18,01,43,3.80
2009,01,18,01,44,3.90
2009,01,18,01,45,3.90
2009,01,18,01,46,3.90
2009,01,18,01,47,3.90
2009,01,18,01,48,3.90
2009,01,18,01,49,3.80
2009,01,18,01,50,3.80
2009,01,18,01,51,3.80
2009,01,18,01,52,3.70
2009,01,18,01,53,3.70
2009,01,18,01,54,3.70
2009,01,18,01,55,3.60
2009,01,18,01,56,3.50
2009,01,18,01,57,3.50
2009,01,18,01,58,3.40
2009,01,18,01,59,3.30
2009,01,18,02,00,3.30
2009,01,18,02,01,3.20
2009,01,18,02,02,3.20
2009,01,18,02,03,3.10
2009,01,18,02,04,3.00
2009,01,18,02,05,3.00
2009,01,18,02,06,2.90
2009,01,18,02,07,2.80
2009,01,18,02,08,2.70
2009,01,18,02,09,2.60
2009,01,18,02,10,2.50
2009,01,18,02,11,2.40
2009,01,18,02,12,2.40
2009,01,18,02,13,2.40
2009,01,18,02,14,2.30
2009,01,18,02,15,2.30
2009,01,18,02,16,2.30
2009,01,18,02,17,2.40
2009,01,18,02,18,2.50
2009,01,18,02,19,2.60
2009,01,18,02,20,2.70
2009,01,18,02,21,2.90
2009,01,18,02,22,3.00
2009,01,18,02,23,3.20
2009,01,18,02,24,3.30
2009,01,18,02,25,3.40
2009,01,18,02,26,3.50
2009,01,18,02,27,3.60
2009,01,18,02,28,3.60
2009,01,18,02,29,3.60
2009,01,18,02,30,3.60
2009,01,18,02,31,3.60
2009,01,18,02,32,3.50
2009,01,18,02,33,3.40
2009,01,18,02,34,3.40
2009,01,18,02,35,3.30
2009,01,18,02,36,3.30
2009,01,18,02,37,3.30
2009,01,18,02,38,3.20
2009,01,18,02,39,3.20
2009,01,18,02,40,3.20
2009,01,18,02,41,3.20
2009,01,18,02,42,3.20
2009,01,18,02,43,3.20
2009,01,18,02,44,3.10
2009,01,18,02,45,3.10
2009,01,18,02,46,3.10
2009,01,18,02,47,3.10
2009,01,18,02,48,3.10
2009,01,18,02,49,3.10
2009,01,18,02,50,3.20
2009,01,18,02,51,3.20
2009,01,18,02,52,3.20
2009,01,18,02,53,3.30
2009,01,18,02,54,3.30
2009,01,18,02,55,3.40
2009,01,18,02,56,3.60
2009,01,18,02,57,3.70
2009,01,18,02,58,3.70
2009,01,18,02,59,3.70
2009,01,18,03,00,3.70
2009,01,18,03,01,3.70
2009,01,18,03,02,3.80
2009,01,18,03,03,3.80
2009,01,18,03,04,3.80
2009,01,18,03,05,3.80
2009,01,18,03,06,3.80
2009,01,18,03,07,3.90
2009,01,18,03,08,3.90
2009,01,18,03,09,3.80
2009,01,18,03,10,3.80
2009,01,18,03,11,3.80
2009,01,18,03,12,3.70
2009,01,18,03,13,3.70
2009,01,18,03,14,3.60
2009,01,18,03,15,3.50
2009,01,18,03,16,3.40
2009,01,18,03,17,3.40
2009,01,18,03,18,3.30
2009,01,18,03,19,3.30
2009,01,18,03,20,3.20
2009,01,18,03,21,3.20
2009,01,18,03,22,3.20
2009,01,18,03,23,3.20
2009,01,18,03,24,3.10
2009,01,18,03,25,3.10
2009,01,18,03,26,3.10
2009,01,18,03,27,3.10
2009,01,18,03,28,3.10
2009,01,18,03,29,3.00
2009,01,18,03,30,3.00
2009,01,18,03,31,3.00
2009,01,18,03,32,2.90
2009,01,18,03,33,2.90
2009,01,18,03,34,2.90
2009,01,18,03,35,2.90
2009,01,18,03,36,2.80
2009,01,18,03,37,2.80
2009,01,18,03,38,2.80
2009,01,18,03,39,2.80
2009,01,18,03,40,2.80
2009,01,18,03,41,2.80
2009,01,18,03,42,2.80
2009,01,18,03,43,2.80
2009,01,18,03,44,2.80
2009,01,18,03,45,2.80
2009,01,18,03,46,2.70
2009,01,18,03,47,2.70
2009,01,18,03,48,2.70
2009,01,18,03,49,2.60
2009,01,18,03,50,2.60
2009,01,18,03,51,2.50
2009,01,18,03,52,2.50
2009,01,18,03,53,2.50
2009,01,18,03,54,2.40
2009,01,18,03,55,2.30
2009,01,18,03,56,2.30
2009,01,18,03,57,2.30
2009,01,18,03,58,2.20
2009,01,18,03,59,2.20
2009,01,18,04,00,2.10
2009,01,18,04,01,2.10
2009,01,18,04,02,2.00
2009,01,18,04,03,2.00
2009,01,18,04,04,2.00
2009,01,18,04,05,1.90
2009,01,18,04,06,1.90
2009,01,18,04,07,1.90
2009,01,18,04,08,1.90
2009,01,18,04,09,1.90
2009,01,18,04,10,1.90
2009,01,18,04,11,1.90
2009,01,18,04,12,1.90
2009,01,18,04,13,1.90
2009,01,18,04,14,1.90
2009,01,18,04,15,1.90
2009,01,18,04,16,1.90
2009,01,18,04,17,1.90
2009,01,18,04,18,1.90
2009,01,18,04,19,1.90
2009,01,18,04,20,1.90
2009,01,18,04,21,1.90
2009,01,18,04,22,1.90
2009,01,18,04,23,1.90
2009,01,18,04,24,1.90
2009,01,18,04,25,1.90
2009,01,18,04,26,1.90
2009,01,18,04,27,1.90
2009,01,18,04,28,1.80
2009,01,18,04,29,1.80
2009,01,18,04,30,1.80
2009,01,18,04,31,1.80
2009,01,18,04,32,1.70
2009,01,18,04,33,1.60
2009,01,18,04,34,1.60
2009,01,18,04,35,1.50
2009,01,18,04,36,1.40
2009,01,18,04,37,1.30
2009,01,18,04,38,1.30
2009,01,18,04,39,1.30
2009,01,18,04,40,1.30
2009,01,18,04,41,1.30
2009,01,18,04,42,1.30
2009,01,18,04,43,1.30
2009,01,18,04,44,1.30
2009,01,18,04,45,1.30
2009,01,18,04,46,1.20
2009,01,18,04,47,1.20
2009,01,18,04,48,1.10
2009,01,18,04,49,1.10
2009,01,18,04,50,1.10
2009,01,18,04,51,1.00
2009,01,18,04,52,1.00
2009,01,18,04,53,1.00
2009,01,18,04,54,1.00
2009,01,18,04,55,1.00
2009,01,18,04,56,1.10
2009,01,18,04,57,1.10
2009,01,18,04,58,1.10
2009,01,18,04,59,1.10
2009,01,18,05,00,1.20
2009,01,18,05,01,1.20
2009,01,18,05,02,1.10
2009,01,18,05,03,1.10
2009,01,18,05,04,1.10
2009,01,18,05,05,1.10
2009,01,18,05,06,1.00
2009,01,18,05,07,1.00
2009,01,18,05,08,0.90
2009,01,18,05,09,0.90
2009,01,18,05,10,0.90
2009,01,18,05,11,0.90
2009,01,18,05,12,0.90
2009,01,18,05,13,0.80
2009,01,18,05,14,0.80
2009,01,18,05,15,0.80
2009,01,18,05,16,0.80
2009,01,18,05,17,0.80
2009,01,18,05,18,0.80
2009,01,18,05,19,0.80
2009,01,18,05,20,0.80
2009,01,18,05,21,0.80
2009,01,18,05,22,0.80
2009,01,18,05,23,0.80
2009,01,18,05,24,0.80
2009,01,18,05,25,0.70
2009,01,18,05,26,0.70
2009,01,18,05,27,0.70
2009,01,18,05,28,0.60
2009,01,18,05,29,0.60
2009,01,18,05,30,0.60
2009,01,18,05,31,0.60
2009,01,18,05,32,0.60
2009,01,18,05,33,0.50
2009,01,18,05,34,0.50
2009,01,18,05,35,0.50
2009,01,18,05,36,0.40
2009,01,18,05,37,0.40
2009,01,18,05,38,0.40
2009,01,18,05,39,0.40
2009,01,18,05,40,0.40
2009,01,18,05,41,0.50
2009,01,18,05,42,0.50
2009,01,18,05,43,0.50
2009,01,18,05,44,0.50
2009,01,18,05,45,0.60
2009,01,18,05,46,0.50
2009,01,18,05,47,0.50
2009,01,18,05,48,0.50
2009,01,18,05,49,0.40
2009,01,18,05,50,0.40
2009,01,18,05,51,0.40
2009,01,18,05,52,0.40
2009,01,18,05,53,0.40
2009,01,18,05,54,0.30
2009,01,18,05,55,0.30
2009,01,18,05,56,0.30
2009,01,18,05,57,0.30
2009,01,18,05,58,0.30
2009,01,18,05,59,0.30
2009,01,18,06,00,0.30
2009,01,18,06,01,0.30
2009,01,18,06,02,0.30
2009,01,18,06,03,0.30
2009,01,18,06,04,0.40
2009,01,18,06,05,0.40
2009,01,18,06,06,0.50
2009,01,18,06,07,0.60
2009,01,18,06,08,0.60
2009,01,18,06,09,0.70
2009,01,18,06,10,0.70
2009,01,18,06,11,0.70
2009,01,18,06,12,0.70
2009,01,18,06,13,0.70
2009,01,18,06,14,0.70
2009,01,18,06,15,0.60
2009,01,18,06,16,0.60
2009,01,18,06,17,0.60
2009,01,18,06,18,0.50
2009,01,18,06,19,0.40
2009,01,18,06,20,0.40
2009,01,18,06,21,0.40
2009,01,18,06,22,0.30
2009,01,18,06,23,0.30
2009,01,18,06,24,0.40
2009,01,18,06,25,0.40
2009,01,18,06,26,0.40
2009,01,18,06,27,0.40
2009,01,18,06,28,0.40
2009,01,18,06,29,0.40
2009,01,18,06,30,0.40
2009,01,18,06,31,0.40
2009,01,18,06,32,0.40
2009,01,18,06,33,0.30
2009,01,18,06,34,0.30
2009,01,18,06,35,0.30
2009,01,18,06,36,0.30
2009,01,18,06,37,0.20
2009,01,18,06,38,0.20
2009,01,18,06,39,0.20
2009,01,18,06,40,0.20
2009,01,18,06,41,0.20
2009,01,18,06,42,0.20
2009,01,18,06,43,0.20
2009,01,18,06,44,0.20
2009,01,18,06,45,0.20
2009,01,18,06,46,0.20
2009,01,18,06,47,0.20
2009,01,18,06,48,0.30
2009,01,18,06,49,0.30
2009,01,18,06,50,0.40
2009,01,18,06,51,0.50
2009,01,18,06,52,0.60
2009,01,18,06,53,0.70
2009,01,18,06,54,0.80
2009,01,18,06,55,0.90
2009,01,18,06,56,0.90
2009,01,18,06,57,1.00
2009,01,18,06,58,1.00
2009,01,18,06,59,1.10
2009,01,18,07,00,1.10
2009,01,18,07,01,1.10
2009,01,18,07,02,1.20
2009,01,18,07,03,1.30
2009,01,18,07,04,1.30
2009,01,18,07,05,1.30
2009,01,18,07,06,1.30
2009,01,18,07,07,1.30
2009,01,18,07,08,1.30
2009,01,18,07,09,1.40
2009,01,18,07,10,1.40
2009,01,18,07,11,1.40
2009,01,18,07,12,1.40
2009,01,18,07,13,1.40
2009,01,18,07,14,1.30
2009,01,18,07,15,1.30
2009,01,18,07,16,1.30
2009,01,18,07,17,1.30
2009,01,18,07,18,1.30
2009,01,18,07,19,1.40
2009,01,18,07,20,1.50
2009,01,18,07,21,1.60
2009,01,18,07,22,1.70
2009,01,18,07,23,1.80
2009,01,18,07,24,2.00
2009,01,18,07,25,2.10
2009,01,18,07,26,2.20
2009,01,18,07,27,2.30
2009,01,18,07,28,2.40
2009,01,18,07,29,2.40
2009,01,18,07,30,2.50
2009,01,18,07,31,2.50
2009,01,18,07,32,2.50
2009,01,18,07,33,2.50
2009,01,18,07,34,2.60
2009,01,18,07,35,2.60
2009,01,18,07,36,2.70
2009,01,18,07,37,2.70
2009,01,18,07,38,2.80
2009,01,18,07,39,2.80
2009,01,18,07,40,2.80
2009,01,18,07,41,2.80
2009,01,18,07,42,2.80
2009,01,18,07,43,2.90
2009,01,18,07,44,2.90
2009,01,18,07,45,3.00
2009,01,18,07,46,3.00
2009,01,18,07,47,3.00
2009,01,18,07,48,3.00
2009,01,18,07,49,3.00
2009,01,18,07,50,3.00
2009,01,18,07,51,3.00
2009,01,18,07,52,3.00
2009,01,18,07,53,3.00
2009,01,18,07,54,2.90
2009,01,18,07,55,2.90
2009,01,18,07,56,2.80
2009,01,18,07,57,2.80
2009,01,18,07,58,2.70
2009,01,18,07,59,2.70
2009,01,18,08,00,2.60
2009,01,18,08,01,2.60
2009,01,18,08,02,2.60
2009,01,18,08,03,2.50
2009,01,18,08,04,2.50
2009,01,18,08,05,2.50
2009,01,18,08,06,2.40
2009,01,18,08,07,2.40
2009,01,18,08,08,2.40
2009,01,18,08,09,2.30
2009,01,18,08,10,2.30
2009,01,18,08,11,2.30
2009,01,18,08,12,2.30
2009,01,18,08,13,2.30
2009,01,18,08,14,2.30
2009,01,18,08,15,2.30
2009,01,18,08,16,2.30
2009,01,18,08,17,2.30
2009,01,18,08,18,2.30
2009,01,18,08,19,2.40
2009,01,18,08,20,2.40
2009,01,18,08,21,2.50
2009,01,18,08,22,2.50
2009,01,18,08,23,2.60
2009,01,18,08,24,2.60
2009,01,18,08,25,2.60
2009,01,18,08,26,2.70
2009,01,18,08,27,2.80
2009,01,18,08,28,2.90
2009,01,18,08,29,3.00
2009,01,18,08,30,3.10
2009,01,18,08,31,3.10
2009,01,18,08,32,3.20
2009,01,18,08,33,3.40
2009,01,18,08,34,3.50
2009,01,18,08,35,3.70
2009,01,18,08,36,3.90
2009,01,18,08,37,4.10
2009,01,18,08,38,4.20
2009,01,18,08,39,4.40
2009,01,18,08,40,4.50
2009,01,18,08,41,4.60
2009,01,18,08,42,4.70
2009,01,18,08,43,4.80
2009,01,18,08,44,4.80
2009,01,18,08,45,4.80
2009,01,18,08,46,4.80
2009,01,18,08,47,4.80
2009,01,18,08,48,4.80
2009,01,18,08,49,4.70
2009,01,18,08,50,4.70
2009,01,18,08,51,4.70
2009,01,18,08,52,4.70
2009,01,18,08,53,4.70
2009,01,18,08,54,4.70
2009,01,18,08,55,4.80
2009,01,18,08,56,4.80
2009,01,18,08,57,4.90
2009,01,18,08,58,4.90
2009,01,18,08,59,4.90
2009,01,18,09,00,5.00
2009,01,18,09,01,5.10
2009,01,18,09,02,5.20
2009,01,18,09,03,5.30
2009,01,18,09,04,5.30
2009,01,18,09,05,5.40
2009,01,18,09,06,5.50
2009,01,18,09,07,5.50
2009,01,18,09,08,5.60
2009,01,18,09,09,5.60
2009,01,18,09,10,5.70
2009,01,18,09,11,5.80
2009,01,18,09,12,5.90
2009,01,18,09,13,6.00
2009,01,18,09,14,6.00
2009,01,18,09,15,6.10
2009,01,18,09,16,6.20
2009,01,18,09,17,6.30
2009,01,18,09,18,6.40
2009,01,18,09,19,6.50
2009,01,18,09,20,6.60
2009,01,18,09,21,6.70
2009,01,18,09,22,6.80
2009,01,18,09,23,6.90
2009,01,18,09,24,6.90
2009,01,18,09,25,7.10
2009,01,18,09,26,7.20
2009,01,18,09,27,7.20
2009,01,18,09,28,7.30
2009,01,18,09,29,7.40
2009,01,18,09,30,7.60
2009,01,18,09,31,7.70
2009,01,18,09,32,7.80
2009,01,18,09,33,7.90
2009,01,18,09,34,8.00
2009,01,18,09,35,8.00
2009,01,18,09,36,8.10
2009,01,18,09,37,8.10
2009,01,18,09,38,8.10
2009,01,18,09,39,8.20
2009,01,18,09,40,8.20
2009,01,18,09,41,8.20
2009,01,18,09,42,8.30
2009,01,18,09,43,8.30
2009,01,18,09,44,8.30
2009,01,18,09,45,8.40
2009,01,18,09,46,8.40
2009,01,18,09,47,8.50
2009,01,18,09,48,8.60
2009,01,18,09,49,8.60
2009,01,18,09,50,8.70
2009,01,18,09,51,8.70
2009,01,18,09,52,8.80
2009,01,18,09,53,8.80
2009,01,18,09,54,8.80
2009,01,18,09,55,8.80
2009,01,18,09,56,8.90
2009,01,18,09,57,8.90
2009,01,18,09,58,8.90
2009,01,18,09,59,9.00
2009,01,18,10,00,9.00
2009,01,18,10,01,9.10
2009,01,18,10,02,9.10
2009,01,18,10,03,9.10
2009,01,18,10,04,9.10
2009,01,18,10,05,9.20
2009,01,18,10,06,9.20
2009,01,18,10,07,9.20
2009,01,18,10,08,9.30
2009,01,18,10,09,9.30
2009,01,18,10,10,9.30
2009,01,18,10,11,9.40
2009,01,18,10,12,9.40
2009,01,18,10,13,9.40
2009,01,18,10,14,9.40
2009,01,18,10,15,9.50
2009,01,18,10,16,9.60
2009,01,18,10,17,9.60
2009,01,18,10,18,9.60
2009,01,18,10,19,9.60
2009,01,18,10,20,9.60
2009,01,18,10,21,9.60
2009,01,18,10,22,9.60
2009,01,18,10,23,9.70
2009,01,18,10,24,9.70
2009,01,18,10,25,9.80
2009,01,18,10,26,9.80
2009,01,18,10,27,9.90
2009,01,18,10,28,9.90
2009,01,18,10,29,9.90
2009,01,18,10,30,9.90
2009,01,18,10,31,10.00
2009,01,18,10,32,10.00
2009,01,18,10,33,10.00
2009,01,18,10,34,10.00
2009,01,18,10,35,10.10
2009,01,18,10,36,10.10
2009,01,18,10,37,10.10
2009,01,18,10,38,10.10
2009,01,18,10,39,10.10
2009,01,18,10,40,10.20
2009,01,18,10,41,10.20
2009,01,18,10,42,10.20
2009,01,18,10,43,10.20
2009,01,18,10,44,10.20
2009,01,18,10,45,10.20
2009,01,18,10,46,10.30
2009,01,18,10,47,10.30
2009,01,18,10,48,10.20
2009,01,18,10,49,10.20
2009,01,18,10,50,10.30
2009,01,18,10,51,10.30
2009,01,18,10,52,10.30
2009,01,18,10,53,10.30
2009,01,18,10,54,10.30
2009,01,18,10,55,10.40
2009,01,18,10,56,10.40
2009,01,18,10,57,10.40
2009,01,18,10,58,10.40
2009,01,18,10,59,10.50
2009,01,18,11,00,10.50
2009,01,18,11,01,10.50
2009,01,18,11,02,10.60
2009,01,18,11,03,10.60
2009,01,18,11,04,10.60
2009,01,18,11,05,10.60
2009,01,18,11,06,10.70
2009,01,18,11,07,10.70
2009,01,18,11,08,10.80
2009,01,18,11,09,10.90
2009,01,18,11,10,11.00
2009,01,18,11,11,11.00
2009,01,18,11,12,11.10
2009,01,18,11,13,11.10
2009,01,18,11,14,11.20
2009,01,18,11,15,11.30
2009,01,18,11,16,11.30
2009,01,18,11,17,11.30
2009,01,18,11,18,11.30
2009,01,18,11,19,11.30
2009,01,18,11,20,11.30
2009,01,18,11,21,11.30
2009,01,18,11,22,11.20
2009,01,18,11,23,11.20
2009,01,18,11,24,11.20
2009,01,18,11,25,11.20
2009,01,18,11,26,11.20
2009,01,18,11,27,11.20
2009,01,18,11,28,11.20
2009,01,18,11,29,11.20
2009,01,18,11,30,11.20
2009,01,18,11,31,11.20
2009,01,18,11,32,11.20
2009,01,18,11,33,11.20
2009,01,18,11,34,11.20
2009,01,18,11,35,11.20
2009,01,18,11,36,11.20
2009,01,18,11,37,11.20
2009,01,18,11,38,11.20
2009,01,18,11,39,11.30
2009,01,18,11,40,11.30
2009,01,18,11,41,11.30
2009,01,18,11,42,11.30
2009,01,18,11,43,11.30
2009,01,18,11,44,11.30
2009,01,18,11,45,11.30
2009,01,18,11,46,11.30
2009,01,18,11,47,11.30
2009,01,18,11,48,11.20
2009,01,18,11,49,11.20
2009,01,18,11,50,11.20
2009,01,18,11,51,11.20
2009,01,18,11,52,11.20
2009,01,18,11,53,11.20
2009,01,18,11,54,11.20
2009,01,18,11,55,11.10
2009,01,18,11,56,11.10
2009,01,18,11,57,11.10
2009,01,18,11,58,11.20
2009,01,18,11,59,11.20
2009,01,18,12,00,11.20
2009,01,18,12,01,11.30
2009,01,18,12,02,11.30
2009,01,18,12,03,11.30
2009,01,18,12,04,11.40
2009,01,18,12,05,11.40
2009,01,18,12,06,11.40
2009,01,18,12,07,11.50
2009,01,18,12,08,11.50
2009,01,18,12,09,11.50
2009,01,18,12,10,11.50
2009,01,18,12,11,11.60
2009,01,18,12,12,11.60
2009,01,18,12,13,11.60
2009,01,18,12,14,11.60
2009,01,18,12,15,11.60
2009,01,18,12,16,11.60
2009,01,18,12,17,11.60
2009,01,18,12,18,11.60
2009,01,18,12,19,11.60
2009,01,18,12,20,11.60
2009,01,18,12,21,11.60
2009,01,18,12,22,11.60
2009,01,18,12,23,11.60
2009,01,18,12,24,11.60
2009,01,18,12,25,11.60
2009,01,18,12,26,11.60
2009,01,18,12,27,11.60
2009,01,18,12,28,11.60
2009,01,18,12,29,11.60
2009,01,18,12,30,11.60
2009,01,18,12,31,11.60
2009,01,18,12,32,11.50
2009,01,18,12,33,11.50
2009,01,18,12,34,11.50
2009,01,18,12,35,11.50
2009,01,18,12,36,11.50
2009,01,18,12,37,11.60
2009,01,18,12,38,11.60
2009,01,18,12,39,11.60
2009,01,18,12,40,11.60
2009,01,18,12,41,11.60
2009,01,18,12,42,11.50
2009,01,18,12,43,11.50
2009,01,18,12,44,11.50
2009,01,18,12,45,11.60
2009,01,18,12,46,11.60
2009,01,18,12,47,11.60
2009,01,18,12,48,11.60
2009,01,18,12,49,11.60
2009,01,18,12,50,11.70
2009,01,18,12,51,11.70
2009,01,18,12,52,11.70
2009,01,18,12,53,11.70
2009,01,18,12,54,11.80
2009,01,18,12,55,11.80
2009,01,18,12,56,11.90
2009,01,18,12,57,12.00
2009,01,18,12,58,12.00
2009,01,18,12,59,12.10
2009,01,18,13,00,12.10
2009,01,18,13,01,12.10
2009,01,18,13,02,12.10
2009,01,18,13,03,12.10
2009,01,18,13,04,12.20
2009,01,18,13,05,12.20
2009,01,18,13,06,12.20
2009,01,18,13,07,12.30
2009,01,18,13,08,12.30
2009,01,18,13,09,12.20
2009,01,18,13,10,12.20
2009,01,18,13,11,12.20
2009,01,18,13,12,12.20
2009,01,18,13,13,12.20
2009,01,18,13,14,12.20
2009,01,18,13,15,12.30
2009,01,18,13,16,12.30
2009,01,18,13,17,12.30
2009,01,18,13,18,12.20
2009,01,18,13,19,12.20
2009,01,18,13,20,12.20
2009,01,18,13,21,12.20
2009,01,18,13,22,12.20
2009,01,18,13,23,12.20
2009,01,18,13,24,12.20
2009,01,18,13,25,12.20
2009,01,18,13,26,12.20
2009,01,18,13,27,12.20
2009,01,18,13,28,12.20
2009,01,18,13,29,12.20
2009,01,18,13,30,12.20
2009,01,18,13,31,12.30
2009,01,18,13,32,12.30
2009,01,18,13,33,12.30
2009,01,18,13,34,12.30
2009,01,18,13,35,12.30
2009,01,18,13,36,12.30
2009,01,18,13,37,12.30
2009,01,18,13,38,12.30
2009,01,18,13,39,12.30
2009,01,18,13,40,12.30
2009,01,18,13,41,12.30
2009,01,18,13,42,12.30
2009,01,18,13,43,12.30
2009,01,18,13,44,12.30
2009,01,18,13,45,12.30
2009,01,18,13,46,12.30
2009,01,18,13,47,12.30
2009,01,18,13,48,12.20
2009,01,18,13,49,12.20
2009,01,18,13,50,12.10
2009,01,18,13,51,12.10
2009,01,18,13,52,12.10
2009,01,18,13,53,12.10
2009,01,18,13,54,12.10
2009,01,18,13,55,12.10
2009,01,18,13,56,12.10
2009,01,18,13,57,12.10
2009,01,18,13,58,12.10
2009,01,18,13,59,12.10
2009,01,18,14,00,12.10
2009,01,18,14,01,12.10
2009,01,18,14,02,12.10
2009,01,18,14,03,12.10
2009,01,18,14,04,12.10
2009,01,18,14,05,12.20
2009,01,18,14,06,12.20
2009,01,18,14,07,12.20
2009,01,18,14,08,12.20
2009,01,18,14,09,12.20
2009,01,18,14,10,12.20
2009,01,18,14,11,12.20
2009,01,18,14,12,12.20
2009,01,18,14,13,12.20
2009,01,18,14,14,12.20
2009,01,18,14,15,12.20
2009,01,18,14,16,12.20
2009,01,18,14,17,12.20
2009,01,18,14,18,12.20
2009,01,18,14,19,12.30
2009,01,18,14,20,12.30
2009,01,18,14,21,12.30
2009,01,18,14,22,12.30
2009,01,18,14,23,12.30
2009,01,18,14,24,12.40
2009,01,18,14,25,12.40
2009,01,18,14,26,12.40
2009,01,18,14,27,12.40
2009,01,18,14,28,12.40
2009,01,18,14,29,12.40
2009,01,18,14,30,12.40
2009,01,18,14,31,12.40
2009,01,18,14,32,12.40
2009,01,18,14,33,12.40
2009,01,18,14,34,12.40
2009,01,18,14,35,12.40
2009,01,18,14,36,12.40
2009,01,18,14,37,12.40
2009,01,18,14,38,12.40
2009,01,18,14,39,12.40
2009,01,18,14,40,12.40
2009,01,18,14,41,12.40
2009,01,18,14,42,12.40
2009,01,18,14,43,12.40
2009,01,18,14,44,12.40
2009,01,18,14,45,12.40
2009,01,18,14,46,12.30
2009,01,18,14,47,12.30
2009,01,18,14,48,12.30
2009,01,18,14,49,12.30
2009,01,18,14,50,12.30
2009,01,18,14,51,12.30
2009,01,18,14,52,12.20
2009,01,18,14,53,12.20
2009,01,18,14,54,12.20
2009,01,18,14,55,12.20
2009,01,18,14,56,12.20
2009,01,18,14,57,12.20
2009,01,18,14,58,12.20
2009,01,18,14,59,12.20
2009,01,18,15,00,12.20
2009,01,18,15,01,12.20
2009,01,18,15,02,12.20
2009,01,18,15,03,12.20
2009,01,18,15,04,12.20
2009,01,18,15,05,12.20
2009,01,18,15,06,12.20
2009,01,18,15,07,12.20
2009,01,18,15,08,12.20
2009,01,18,15,09,12.20
2009,01,18,15,10,12.20
2009,01,18,15,11,12.20
2009,01,18,15,12,12.20
2009,01,18,15,13,12.20
2009,01,18,15,14,12.10
2009,01,18,15,15,12.10
2009,01,18,15,16,12.10
2009,01,18,15,17,12.10
2009,01,18,15,18,12.10
2009,01,18,15,19,12.10
2009,01,18,15,20,12.10
2009,01,18,15,21,12.10
2009,01,18,15,22,12.10
2009,01,18,15,23,12.10
2009,01,18,15,24,12.10
2009,01,18,15,25,12.00
2009,01,18,15,26,12.00
2009,01,18,15,27,12.00
2009,01,18,15,28,11.90
2009,01,18,15,29,11.90
2009,01,18,15,30,11.90
2009,01,18,15,31,11.90
2009,01,18,15,32,11.90
2009,01,18,15,33,11.90
2009,01,18,15,34,11.80
2009,01,18,15,35,11.80
2009,01,18,15,36,11.80
2009,01,18,15,37,11.80
2009,01,18,15,38,11.80
2009,01,18,15,39,11.70
2009,01,18,15,40,11.70
2009,01,18,15,41,11.70
2009,01,18,15,42,11.70
2009,01,18,15,43,11.60
2009,01,18,15,44,11.60
2009,01,18,15,45,11.60
2009,01,18,15,46,11.60
2009,01,18,15,47,11.60
2009,01,18,15,48,11.50
2009,01,18,15,49,11.50
2009,01,18,15,50,11.50
2009,01,18,15,51,11.50
2009,01,18,15,52,11.40
2009,01,18,15,53,11.40
2009,01,18,15,54,11.40
2009,01,18,15,55,11.30
2009,01,18,15,56,11.30
2009,01,18,15,57,11.30
2009,01,18,15,58,11.20
2009,01,18,15,59,11.20
2009,01,18,16,00,11.20
2009,01,18,16,01,11.20
2009,01,18,16,02,11.20
2009,01,18,16,03,11.20
2009,01,18,16,04,11.10
2009,01,18,16,05,11.10
2009,01,18,16,06,11.10
2009,01,18,16,07,11.10
2009,01,18,16,08,11.10
2009,01,18,16,09,11.10
2009,01,18,16,10,11.00
2009,01,18,16,11,11.00
2009,01,18,16,12,11.00
2009,01,18,16,13,11.00
2009,01,18,16,14,11.00
2009,01,18,16,15,11.00
2009,01,18,16,16,11.00
2009,01,18,16,17,11.00
2009,01,18,16,18,11.00
2009,01,18,16,19,11.00
2009,01,18,16,20,11.00
2009,01,18,16,21,11.00
2009,01,18,16,22,11.00
2009,01,18,16,23,11.00
2009,01,18,16,24,11.00
2009,01,18,16,25,11.00
2009,01,18,16,26,11.00
2009,01,18,16,27,11.00
2009,01,18,16,28,10.90
2009,01,18,16,29,10.90
2009,01,18,16,30,11.00
2009,01,18,16,31,10.90
2009,01,18,16,32,10.90
2009,01,18,16,33,10.90
2009,01,18,16,34,10.90
2009,01,18,16,35,10.80
2009,01,18,16,36,10.80
2009,01,18,16,37,10.80
2009,01,18,16,38,10.80
2009,01,18,16,39,10.70
2009,01,18,16,40,10.70
2009,01,18,16,41,10.70
2009,01,18,16,42,10.60
2009,01,18,16,43,10.60
2009,01,18,16,44,10.60
2009,01,18,16,45,10.50
2009,01,18,16,46,10.40
2009,01,18,16,47,10.40
2009,01,18,16,48,10.30
2009,01,18,16,49,10.20
2009,01,18,16,50,10.20
2009,01,18,16,51,10.10
2009,01,18,16,52,10.00
2009,01,18,16,53,10.00
2009,01,18,16,54,9.90
2009,01,18,16,55,9.80
2009,01,18,16,56,9.80
2009,01,18,16,57,9.70
2009,01,18,16,58,9.60
2009,01,18,16,59,9.50
2009,01,18,17,00,9.40
2009,01,18,17,01,9.40
2009,01,18,17,02,9.30
2009,01,18,17,03,9.20
2009,01,18,17,04,9.20
2009,01,18,17,05,9.10
2009,01,18,17,06,9.00
2009,01,18,17,07,8.90
2009,01,18,17,08,8.90
2009,01,18,17,09,8.80
2009,01,18,17,10,8.80
2009,01,18,17,11,8.80
2009,01,18,17,12,8.70
2009,01,18,17,13,8.70
2009,01,18,17,14,8.60
2009,01,18,17,15,8.60
2009,01,18,17,16,8.60
2009,01,18,17,17,8.50
2009,01,18,17,18,8.40
2009,01,18,17,19,8.40
2009,01,18,17,20,8.30
2009,01,18,17,21,8.30
2009,01,18,17,22,8.20
2009,01,18,17,23,8.10
2009,01,18,17,24,8.00
2009,01,18,17,25,7.90
2009,01,18,17,26,7.80
2009,01,18,17,27,7.60
2009,01,18,17,28,7.50
2009,01,18,17,29,7.40
2009,01,18,17,30,7.30
2009,01,18,17,31,7.20
2009,01,18,17,32,7.10
2009,01,18,17,33,7.00
2009,01,18,17,34,7.00
2009,01,18,17,35,6.90
2009,01,18,17,36,6.80
2009,01,18,17,37,6.80
2009,01,18,17,38,6.70
2009,01,18,17,39,6.70
2009,01,18,17,40,6.70
2009,01,18,17,41,6.70
2009,01,18,17,42,6.70
2009,01,18,17,43,6.60
2009,01,18,17,44,6.60
2009,01,18,17,45,6.60
2009,01,18,17,46,6.60
2009,01,18,17,47,6.60
2009,01,18,17,48,6.60
2009,01,18,17,49,6.50